Tracking 19794 objects as of 22-Jul-2019
HD Live streaming from Space Station
objects crossing your sky now

COSMOS 1275 DEB

Track COSMOS 1275 DEB now!
10-day predictions


NORAD ID: 12714
Int'l Code: 1981-053BJ
Perigee: 957.5 km
Apogee: 1,144.0 km
Inclination: 83.0 °
Period: 106.1 minutes
Semi major axis: 7421 km
RCS: 0.2013 m2 (medium)
Launch date: June 4, 1981
Source: Commonwealth of Independent States (former USSR) (CIS)
Launch site: PLESETSK MISSILE AND SPACE COMPLEX (PKMTR)

Note: This is SATELLITE DEBRIS
aabbcc
Your satellite tracking list
Your tracking list is empty




NASA's NSSDC Master Catalog

Two Line Element Set (TLE):
1 12714U 81053BJ  19203.13933500  .00000118  00000-0  13697-3 0  9990
2 12714  82.9775 346.1070 0125663 201.7381 157.8406 13.57830498874717
Source of the keplerian elements: AFSPC